SL-8 DEB, 21157

Orbit data source: Space-Track

SL-8 DEB, 21157 is space debris in LEO originally from a launch on Tue, 12 Feb 1991 UTC launched from the Plesetsk Missile And Space Complex (PKMTR). Debris objects in space refer to the collection of defunct objects orbiting the Earth. Examples of debris include non-operational satellites, rocket bodies, and fragments generated from explosions, collisions, or faulty payload assembly.

Loading next visibility...
Identifier
21157, 1991-009U
Orbit
LEO
Country
Flag of CISCIS
Related business
Manufacturer
Unknown
Mission
Spacecraft
Bus & Motor
Unknown
Mass
Unknown
Launch date (UTC)
1991-02-12 (35 years ago)
Launch vehicle
Unknown
Launch site
Plesetsk Missile And Space Complex (PKMTR)
Object type
Payload
Rocket body
Debris
Shape & HBR
Unknown shape, 0.4 m
Radar Cross Section
Medium (>0.1 m² and <1 m²)

Expand to show TLE details & history
Last TLE update: 2 days ago

TLE from 2 days ago
0 SL-8 DEB
1 21157U 91009U   26171.38436412 -.00000018  00000-0 -22437-4 0  9996
2 21157  73.9524 322.3696 0174826 239.6981 144.5244 12.24125526577154
Epoch: 2026-06-20T09:13Z
TLE epoch observation values (Epoch: 2026-06-20T09:13:29.059Z)
Latitude
24.33836°
Longitude
-77.16126°
Altitude
1,691.083 km
Speed
6.981 km/s
True Right ascension
21h 59m 14s
True Declination
24° 13' 28"
Sunlit
Object was in daylight at epoch
Visualization orbit readout
Latitude
Unknown
Longitude
Unknown
Altitude
Unknown
Speed
Unknown
Apparent Right ascension
Unknown
Apparent Declination
Unknown
Sunlit
N/A
Visualization observer readout
Local Sidereal Time
03:41:34
Azimuth
Unknown
Elevation
Unknown
Doppler factor
Unknown
Orbital elements
Apogee altitude
1,711.491 km
Perigee altitude
1,433.495 km
Semi-major axis
7,950.63 km
Eccentricity
0.01748
Inclination
73.9524°
RAAN
322.3696°
Arg. of periapsis
239.6981°
True anomaly
145.66664°
Mean anomaly
144.5244°
Eccentric anomaly
145.09754°
Mean motion
3.06155 °/min
Orbital period
117.59 mins
BSTAR
-0.000022437
Loading maneuver chart data...
Computing Atmospheric mass density...
Loading historical data...
Loading historical data...
Loading historical data...
Loading historical data...
Loading historical data...
Loading historical data...
Loading historical data...

Documentation

Showing up to 5 results
|